Location: Unspecified
(40.9833°N, 0.0000°E)
Time: 02:51:18
(UTC+00:00)

EO-88 - Visible Passes

Search period start: 23 July 2019 00:00
Search period end: 02 August 2019 00:00
Orbit: 484 x 494 km, 97.4° (Epoch: 21 July)

Date Brightness Start Highest point End Pass type
(mag) Time Alt. Az. Time Alt. Az. Time Alt. Az.
23 Jul ? 20:41:19 16° E 20:42:37 19° ENE 20:45:11 10° NNE visible
23 Jul ? 22:15:46 25° WSW 22:15:59 25° W 22:19:01 10° NW visible
24 Jul ? 20:19:16 10° ENE 20:19:50 10° ENE 20:20:24 10° NE visible
24 Jul ? 21:52:34 49° WSW 21:52:52 51° W 21:56:24 10° NNW visible
25 Jul ? 21:29:23 62° SE 21:29:52 76° ENE 21:33:28 10° N visible
26 Jul ? 21:06:11 32° E 21:06:55 36° ENE 21:10:15 10° N visible
26 Jul ? 22:40:39 13° W 22:40:39 13° W 22:42:18 10° WNW visible
27 Jul ? 20:43:00 17° E 20:44:03 19° ENE 20:46:41 10° NNE visible
27 Jul ? 22:17:27 24° W 22:17:27 24° W 22:20:25 10° NW visible
28 Jul ? 20:20:23 10° ENE 20:21:15 11° ENE 20:22:07 10° NE visible
28 Jul ? 21:54:16 48° WSW 21:54:19 48° W 21:57:50 10° NNW visible
29 Jul ? 21:31:05 74° SE 21:31:18 79° ENE 21:34:55 10° N visible
30 Jul ? 21:07:53 36° E 21:08:20 38° ENE 21:11:42 10° N visible
30 Jul ? 22:42:20 12° W 22:42:20 12° W 22:43:36 10° WNW visible
31 Jul ? 20:44:41 19° E 20:45:28 20° ENE 20:48:10 10° NNE visible
31 Jul ? 22:19:09 23° W 22:19:09 23° W 22:21:48 10° NW visible
01 Aug ? 20:21:34 10° E 20:22:40 11° ENE 20:23:45 10° NE visible
01 Aug ? 21:55:57 46° W 21:55:57 46° W 21:59:14 10° NNW visible
